When you browse on this site, cookies collect data to enhance your experience and personalize the content and advertising you see.
Visit our Privacy Policy to learn more. By continuing to use the site, you agree to this use of cookies and data.
  • In United Kingdom
  • List of Countries
  • For 7 days
  • Water Temperature
  • Satellite Maps
  • Weather Map
  • Weather Widgets
  • user-avatar
    Login

    Hourly Weather Ibagué

    Today, 16 June, Sunday

    Time Temperature Precipitation Wind Pressure Humidity
    00:00 +20°C° 0.3 mm 1 mps 648 mmHg 87%
    01:00 +20°C° 0.3 mm 1 mps 648 mmHg 87%
    02:00 +20°C° 0.3 mm 1 mps 648 mmHg 87%
    03:00 +20°C° 0.3 mm 1 mps 648 mmHg 86%
    04:00 +20°C° 0.3 mm 1 mps 648 mmHg 86%
    05:00 +20°C° 0 mm 1 mps 648 mmHg 86%
    06:00 +21°C° 0 mm 1 mps 648 mmHg 85%
    07:00 +21°C° 0 mm 1 mps 649 mmHg 84%
    08:00 +23°C° 0 mm 1 mps 649 mmHg 79%
    09:00 +24°C° 0 mm 2 mps 650 mmHg 74%
    10:00 +26°C° 0 mm 2 mps 650 mmHg 69%
    11:00 +26°C° 0.4 mm 2 mps 650 mmHg 71%
    12:00 +26°C° 0.4 mm 2 mps 649 mmHg 72%
    13:00 +27°C° 0.4 mm 2 mps 648 mmHg 74%
    14:00 +26°C° 0.5 mm 2 mps 648 mmHg 75%
    15:00 +26°C° 0.5 mm 2 mps 648 mmHg 76%
    16:00 +26°C° 0.5 mm 2 mps 647 mmHg 76%
    17:00 +24°C° 0.2 mm 2 mps 647 mmHg 81%
    18:00 +23°C° 0.2 mm 2 mps 647 mmHg 85%
    19:00 +22°C° 0.2 mm 1 mps 647 mmHg 89%
    20:00 +21°C° 0.1 mm 1 mps 648 mmHg 87%
    21:00 +20°C° 0.1 mm 2 mps 648 mmHg 86%
    22:00 +20°C° 0.1 mm 2 mps 649 mmHg 85%
    23:00 +20°C° 0 mm 2 mps 649 mmHg 85%

    Tomorrow, 17 June, Monday

    Time Temperature Precipitation Wind Pressure Humidity
    00:00 +20°C° 0 mm 1 mps 648 mmHg 84%
    01:00 +20°C° 0 mm 1 mps 648 mmHg 84%
    02:00 +20°C° 0 mm 1 mps 648 mmHg 84%
    03:00 +20°C° 0 mm 1 mps 647 mmHg 83%
    04:00 +20°C° 0 mm 1 mps 647 mmHg 83%
    05:00 +21°C° 0 mm 1 mps 648 mmHg 82%
    06:00 +21°C° 0 mm 1 mps 648 mmHg 81%
    07:00 +21°C° 0 mm 1 mps 649 mmHg 79%
    08:00 +23°C° 0 mm 2 mps 649 mmHg 73%
    09:00 +25°C° 0 mm 2 mps 650 mmHg 67%
    10:00 +27°C° 0 mm 3 mps 650 mmHg 61%
    11:00 +27°C° 0.2 mm 3 mps 650 mmHg 62%
    12:00 +27°C° 0.2 mm 3 mps 649 mmHg 64%
    13:00 +28°C° 0.2 mm 4 mps 649 mmHg 66%
    14:00 +27°C° 0.2 mm 3 mps 648 mmHg 67%
    15:00 +27°C° 0.2 mm 3 mps 648 mmHg 69%
    16:00 +26°C° 0.2 mm 3 mps 647 mmHg 71%
    17:00 +25°C° 0.2 mm 2 mps 647 mmHg 76%
    18:00 +23°C° 0.2 mm 2 mps 648 mmHg 81%
    19:00 +21°C° 0.2 mm 2 mps 648 mmHg 86%
    20:00 +20°C° 0 mm 2 mps 648 mmHg 85%
    21:00 +20°C° 0 mm 2 mps 649 mmHg 83%
    22:00 +20°C° 0 mm 2 mps 649 mmHg 82%
    23:00 +20°C° 0 mm 2 mps 649 mmHg 83%

    Day after tomorrow, 18 June, Tuesday

    Time Temperature Precipitation Wind Pressure Humidity
    00:00 +19°C° 0 mm 2 mps 648 mmHg 83%
    01:00 +19°C° 0 mm 2 mps 648 mmHg 84%
    02:00 +19°C° 0 mm 2 mps 648 mmHg 83%
    03:00 +20°C° 0 mm 1 mps 648 mmHg 83%
    04:00 +20°C° 0 mm 1 mps 647 mmHg 83%
    05:00 +20°C° 0 mm 1 mps 648 mmHg 82%
    06:00 +21°C° 0 mm 1 mps 648 mmHg 80%
    07:00 +21°C° 0 mm 1 mps 649 mmHg 79%
    08:00 +23°C° 0 mm 2 mps 649 mmHg 75%
    09:00 +24°C° 0 mm 2 mps 650 mmHg 71%
    10:00 +25°C° 0 mm 3 mps 650 mmHg 67%
    11:00 +26°C° 0.2 mm 3 mps 649 mmHg 68%
    12:00 +26°C° 0.2 mm 3 mps 649 mmHg 68%
    13:00 +27°C° 0.2 mm 3 mps 649 mmHg 69%
    14:00 +26°C° 0.3 mm 3 mps 648 mmHg 71%
    15:00 +26°C° 0.3 mm 3 mps 647 mmHg 73%
    16:00 +26°C° 0.3 mm 2 mps 647 mmHg 75%
    17:00 +24°C° 0.1 mm 2 mps 647 mmHg 79%
    18:00 +23°C° 0.1 mm 2 mps 647 mmHg 84%
    19:00 +21°C° 0.1 mm 1 mps 647 mmHg 88%
    20:00 +21°C° 0 mm 1 mps 648 mmHg 87%
    21:00 +20°C° 0 mm 2 mps 648 mmHg 85%
    22:00 +19°C° 0 mm 2 mps 649 mmHg 84%
    23:00 +19°C° 0 mm 2 mps 648 mmHg 83%

    19 June, Wednesday

    Time Temperature Precipitation Wind Pressure Humidity
    00:00 +19°C° 0 mm 2 mps 648 mmHg 83%
    01:00 +19°C° 0 mm 2 mps 648 mmHg 82%
    02:00 +19°C° 0 mm 2 mps 648 mmHg 83%
    03:00 +18°C° 0 mm 2 mps 647 mmHg 83%
    04:00 +18°C° 0 mm 2 mps 647 mmHg 83%
    05:00 +20°C° 0 mm 1 mps 648 mmHg 82%
    06:00 +20°C° 0 mm 1 mps 648 mmHg 81%
    07:00 +21°C° 0 mm 1 mps 648 mmHg 79%
    08:00 +23°C° 0 mm 2 mps 649 mmHg 73%
    09:00 +25°C° 0 mm 2 mps 650 mmHg 67%
    10:00 +26°C° 0 mm 3 mps 650 mmHg 60%
    11:00 +27°C° 0.1 mm 3 mps 650 mmHg 59%
    12:00 +28°C° 0.1 mm 3 mps 649 mmHg 58%
    13:00 +28°C° 0.1 mm 3 mps 648 mmHg 57%
    14:00 +28°C° 0.2 mm 3 mps 648 mmHg 59%
    15:00 +28°C° 0.2 mm 2 mps 647 mmHg 62%
    16:00 +27°C° 0.2 mm 2 mps 647 mmHg 64%
    17:00 +26°C° 0.1 mm 2 mps 647 mmHg 70%
    18:00 +24°C° 0.1 mm 2 mps 647 mmHg 76%
    19:00 +22°C° 0.1 mm 1 mps 647 mmHg 82%
    20:00 +21°C° 0 mm 2 mps 648 mmHg 81%
    21:00 +20°C° 0 mm 2 mps 648 mmHg 81%
    22:00 +20°C° 0 mm 2 mps 648 mmHg 80%
    23:00 +20°C° 0 mm 2 mps 648 mmHg 80%

    20 June, Thursday

    Time Temperature Precipitation Wind Pressure Humidity
    00:00 +21°C° 0 mm 1 mps 648 mmHg 80%
    01:00 +22°C° 0 mm 1 mps 648 mmHg 80%
    02:00 +21°C° 0 mm 1 mps 648 mmHg 81%
    03:00 +21°C° 0 mm 1 mps 648 mmHg 82%
    04:00 +21°C° 0 mm 1 mps 648 mmHg 83%
    05:00 +21°C° 0 mm 1 mps 648 mmHg 82%
    06:00 +21°C° 0 mm 1 mps 648 mmHg 82%
    07:00 +22°C° 0 mm 1 mps 649 mmHg 81%
    08:00 +23°C° 0.1 mm 2 mps 649 mmHg 76%
    09:00 +25°C° 0.1 mm 2 mps 650 mmHg 71%
    10:00 +26°C° 0.1 mm 3 mps 650 mmHg 66%
    11:00 +26°C° 0.3 mm 3 mps 650 mmHg 65%
    12:00 +27°C° 0.3 mm 3 mps 649 mmHg 64%
    13:00 +28°C° 0.3 mm 3 mps 649 mmHg 63%
    14:00 +27°C° 0.5 mm 3 mps 648 mmHg 67%
    15:00 +26°C° 0.5 mm 3 mps 648 mmHg 71%
    16:00 +26°C° 0.5 mm 2 mps 647 mmHg 75%
    17:00 +24°C° 0.2 mm 2 mps 647 mmHg 78%
    18:00 +23°C° 0.2 mm 2 mps 647 mmHg 81%
    19:00 +22°C° 0.2 mm 1 mps 648 mmHg 84%
    20:00 +21°C° 0 mm 1 mps 648 mmHg 83%
    21:00 +20°C° 0 mm 2 mps 648 mmHg 83%
    22:00 +20°C° 0 mm 2 mps 649 mmHg 82%
    23:00 +21°C° 0 mm 1 mps 649 mmHg 82%

    21 June, Friday

    Time Temperature Precipitation Wind Pressure Humidity
    00:00 +21°C° 0 mm 1 mps 648 mmHg 83%
    01:00 +21°C° 0 mm 1 mps 648 mmHg 83%
    02:00 +20°C° 0 mm 1 mps 648 mmHg 84%
    03:00 +20°C° 0 mm 1 mps 648 mmHg 85%
    04:00 +20°C° 0 mm 1 mps 648 mmHg 86%
    05:00 +20°C° 0.1 mm 1 mps 648 mmHg 87%
    06:00 +20°C° 0.1 mm 1 mps 648 mmHg 88%
    07:00 +20°C° 0.1 mm 1 mps 649 mmHg 90%
    08:00 +21°C° 0.2 mm 1 mps 649 mmHg 87%
    09:00 +21°C° 0.2 mm 2 mps 650 mmHg 85%
    10:00 +23°C° 0.2 mm 2 mps 650 mmHg 82%
    11:00 +24°C° 0.4 mm 2 mps 650 mmHg 80%
    12:00 +25°C° 0.4 mm 3 mps 649 mmHg 77%
    13:00 +26°C° 0.4 mm 3 mps 649 mmHg 74%
    14:00 +25°C° 0.3 mm 3 mps 649 mmHg 74%
    15:00 +25°C° 0.3 mm 3 mps 648 mmHg 74%
    16:00 +25°C° 0.3 mm 3 mps 647 mmHg 74%
    17:00 +24°C° 0.1 mm 2 mps 647 mmHg 78%
    18:00 +21°C° 0.1 mm 2 mps 648 mmHg 82%
    19:00 +21°C° 0.1 mm 1 mps 648 mmHg 86%
    20:00 +20°C° 0 mm 2 mps 648 mmHg 84%
    21:00 +20°C° 0 mm 2 mps 649 mmHg 83%
    22:00 +20°C° 0 mm 2 mps 649 mmHg 81%
    23:00 +20°C° 0 mm 2 mps 649 mmHg 80%
    Show more